User: anonymous   Login
Location: Unspecified
(0.0000°N, 0.0000°E)
Time: 09:50:33
(UTC+01:00)
Language:

Cosmos 1515 Rocket - Orbit

View from above orbital plane
View from above orbital plane
View from above satellite
View from above satellite

Ground track
Ground track

The orbit data is extracted from the following two-line orbital elements,

1 14552U 83122B   14329.24197830  .00000564  00000-0  66425-4 0   304
2 14552 082.5261 231.6847 0017166 006.9412 108.3608 14.82982708670599
Epoch (UTC): 25 November 2014 05:48:26
Eccentricity: 0.0017166
inclination: 82.5261°
perigee height: 608 km
apogee height: 632 km
right ascension of ascending node: 231.6847°
argument of perigee: 6.9412°
revolutions per day: 14.82982708
mean anomaly at epoch: 108.3608°
orbit number at epoch: 67059

The dashed part of the orbit path shows where the satellite is in the earth's shadow,  

DLR